KB9ZI Weather Reports


Display with metric or nautical units.
time (UTC)temp
F
wind
direction
speed
MPH
gust
MPH
rain 1hr
in
rain 24hr
in
rain mn
in
humidity
%
barometer
mb
20260507203131 57 235 0.0 9.0 0.00 0.00 0.00 32 1010.3
20260507203051 57 235 0.0 9.0 0.00 0.00 0.00 32 1010.3
20260507202833 57 250 0.0 9.0 0.00 0.00 0.00 35 1010.4
20260507202631 58 262 0.0 9.0 0.00 0.00 0.00 36 1010.4
20260507202433 57 262 0.0 9.0 0.00 0.00 0.00 36 1010.4
20260507202216 57 252 0.0 9.0 0.00 0.00 0.00 34 1010.4
20260507202122 57 223 0.0 7.0 0.00 0.00 0.00 37 1010.4
20260507202114 57 233 0.0 7.0 0.00 0.00 0.00 40 1010.5
20260507201815 56 251 0.0 7.0 0.00 0.00 0.00 36 1010.4
20260507201621 57 320 0.0 7.0 0.00 0.00 0.00 36 1010.4
20260507201615 57 333 0.0 5.0 0.00 0.00 0.00 36 1010.4
20260507201416 56 223 0.0 5.0 0.00 0.00 0.00 40 1010.5
20260507201213 55 73 0.0 5.0 0.00 0.00 0.00 42 1010.5
20260507201120 55 73 0.0 5.0 0.00 0.00 0.00 39 1010.4
20260507201014 55 45 0.0 5.0 0.00 0.00 0.00 37 1010.5
20260507200813 56 42 0.0 5.0 0.00 0.00 0.00 51 1010.5
20260507200617 56 65 0.0 5.0 0.00 0.00 0.00 47 1010.5
20260507200612 56 75 0.0 5.0 0.00 0.00 0.00 47 1010.5
20260507200513 56 124 0.0 5.0 0.00 0.00 0.00 41 1010.5
20260507200212 56 128 0.0 5.0 0.00 0.00 0.00 39 1010.6
20260507200114 57 151 0.0 5.0 0.00 0.00 0.00 41 1010.7
20260507200009 57 151 0.0 5.0 0.00 0.00 0.00 42 1010.7
20260507195804 57 44 0.0 5.0 0.00 0.00 0.00 41 1010.6
20260507195618 57 38 0.0 5.0 0.00 0.00 0.00 40 1010.6
20260507195605 57 292 0.0 5.0 0.00 0.00 0.00 40 1010.6
20260507195351 57 234 0.0 4.0 0.00 0.00 0.00 37 1010.6
20260507195152 57 90 0.0 4.0 0.00 0.00 0.00 37 1010.7
20260507195106 57 4 0.0 4.0 0.00 0.00 0.00 37 1010.7
20260507194952 56 41 0.0 5.0 0.00 0.00 0.00 41 1010.7
20260507194908 56 334 0.0 9.0 0.00 0.00 0.00 40 1010.7
20260507194842 56 264 0.0 9.0 0.00 0.00 0.00 33 1010.7
20260507194547 56 25 0.0 9.0 0.00 0.00 0.00 36 1010.8
20260507194349 56 25 0.0 9.0 0.00 0.00 0.00 35 1010.8
20260507194258 56 296 0.0 9.0 0.00 0.00 0.00 39 1010.8
20260507194106 56 204 0.0 9.0 0.00 0.00 0.00 39 1010.8
20260507193947 56 193 0.0 9.0 0.00 0.00 0.00 36 1010.7
20260507193747 56 251 0.0 6.0 0.00 0.00 0.00 34 1010.9
20260507193604 56 264 0.0 6.0 0.00 0.00 0.00 39 1010.8
20260507193544 56 268 0.0 6.0 0.00 0.00 0.00 41 1010.8
20260507193342 55 44 0.0 7.0 0.00 0.00 0.00 46 1010.8
20260507193145 55 39 0.0 7.0 0.00 0.00 0.00 35 1010.9
20260507193105 55 39 0.0 7.0 0.00 0.00 0.00 35 1010.9
20260507192939 55 49 0.0 7.0 0.00 0.00 0.00 38 1011.0
20260507192738 55 240 0.0 9.0 0.00 0.00 0.00 41 1010.9
20260507192640 56 219 0.0 9.0 0.00 0.00 0.00 38 1010.9
20260507192605 56 237 0.0 9.0 0.00 0.00 0.00 38 1010.9
20260507192337 56 234 0.0 9.0 0.00 0.00 0.00 38 1010.9
20260507192134 57 252 0.0 9.0 0.00 0.00 0.00 32 1011.0
20260507192103 57 248 0.0 9.0 0.00 0.00 0.00 33 1011.0
20260507191936 57 244 0.0 7.0 0.00 0.00 0.00 35 1011.0
20260507191735 57 333 0.0 7.0 0.00 0.00 0.00 37 1010.9
20260507191605 56 31 0.0 7.0 0.00 0.00 0.00 36 1011.0
20260507191535 56 27 0.0 7.0 0.00 0.00 0.00 36 1011.0
20260507191333 56 130 0.0 7.0 0.00 0.00 0.00 34 1011.0
20260507191134 55 292 0.0 7.0 0.00 0.00 0.00 37 1011.0
20260507191101 55 292 0.0 7.0 0.00 0.00 0.00 36 1011.0
20260507191036 54 189 0.0 7.0 0.00 0.00 0.00 35 1010.9
20260507190731 54 248 0.0 7.0 0.00 0.00 0.00 33 1010.9
20260507190602 54 254 0.0 12.0 0.00 0.00 0.00 35 1011.0
20260507190534 54 254 0.0 12.0 0.00 0.00 0.00 35 1011.0
20260507190400 55 207 0.0 12.0 0.00 0.00 0.00 31 1011.0
20260507190347 54 199 0.0 12.0 0.00 0.00 0.00 34 1011.1
20260507190312 55 206 0.0 12.0 0.00 0.00 0.00 31 1011.0
20260507185910 56 213 0.0 12.0 0.00 0.00 0.00 37 1011.1
20260507185709 56 235 0.0 12.0 0.00 0.00 0.00 35 1011.1
20260507185556 56 245 0.0 7.0 0.00 0.00 0.00 34 1011.1
20260507185508 56 258 0.0 7.0 0.00 0.00 0.00 35 1011.0
20260507185447 54 16 0.0 6.0 0.00 0.00 0.00 35 1011.0
20260507185405 55 241 0.0 6.0 0.00 0.00 0.00 37 1011.1
20260507185317 55 230 0.0 6.0 0.00 0.00 0.00 37 1011.1
20260507184907 55 245 0.0 9.0 0.00 0.00 0.00 35 1011.1
20260507184710 56 250 0.0 9.0 0.00 0.00 0.00 35 1011.1
20260507184555 56 264 0.0 9.0 0.00 0.00 0.00 37 1011.1
20260507184506 56 224 0.0 9.0 0.00 0.00 0.00 36 1011.1
20260507184359 57 45 0.0 9.0 0.00 0.00 0.00 38 1011.2
20260507184347 56 320 0.0 9.0 0.00 0.00 0.00 36 1011.1
20260507184314 57 37 0.0 9.0 0.00 0.00 0.00 38 1011.2
20260507183907 56 18 0.0 9.0 0.00 0.00 0.00 36 1011.1
20260507183705 56 32 0.0 9.0 0.00 0.00 0.00 35 1011.1
20260507183553 56 32 0.0 9.0 0.00 0.00 0.00 35 1011.2
20260507183505 56 20 0.0 6.0 0.00 0.00 0.00 32 1011.1
20260507183439 56 11 0.0 6.0 0.00 0.00 0.00 35 1011.2
20260507183349 56 35 0.0 6.0 0.00 0.00 0.00 37 1011.2
20260507183308 56 35 0.0 6.0 0.00 0.00 0.00 37 1011.2
20260507182906 56 243 0.0 6.0 0.00 0.00 0.00 37 1011.2
20260507182702 56 231 0.0 10.0 0.00 0.00 0.00 37 1011.2
20260507182549 56 278 0.0 10.0 0.00 0.00 0.00 38 1011.2
20260507182504 56 250 0.0 10.0 0.00 0.00 0.00 38 1011.2
20260507182354 55 155 0.0 10.0 0.00 0.00 0.00 34 1011.2
20260507182339 56 52 0.0 10.0 0.00 0.00 0.00 35 1011.4
20260507182307 55 157 0.0 10.0 0.00 0.00 0.00 34 1011.2
20260507181901 55 221 0.0 10.0 0.00 0.00 0.00 33 1011.1
20260507181800 56 264 0.0 5.0 0.00 0.00 0.00 39 1011.2
20260507181551 56 245 0.0 6.0 0.00 0.00 0.00 38 1011.2
20260507181459 56 4 0.0 6.0 0.00 0.00 0.00 34 1011.2
20260507181402 56 51 0.0 6.0 0.00 0.00 0.00 36 1011.4
20260507181345 56 0 0.0 6.0 0.00 0.00 0.00 37 1011.4
20260507181310 56 51 0.0 6.0 0.00 0.00 0.00 36 1011.4
20260507180900 56 20 0.0 6.0 0.00 0.00 0.00 37 1011.4
20260507180702 55 23 0.0 6.0 0.00 0.00 0.00 37 1011.4
20260507180549 55 257 0.0 6.0 0.00 0.00 0.00 36 1011.2
20260507180456 55 51 0.0 6.0 0.00 0.00 0.00 34 1011.5
20260507180356 56 303 0.0 6.0 0.00 0.00 0.00 36 1011.4
20260507180340 56 17 0.0 6.0 0.00 0.00 0.00 34 1011.5
20260507175851 56 52 0.0 6.0 0.00 0.00 0.00 34 1011.5
20260507175656 56 231 0.0 6.0 0.00 0.00 0.00 35 1011.4
20260507175553 56 235 0.0 6.0 0.00 0.00 0.00 36 1011.4
20260507175454 56 245 0.0 6.0 0.00 0.00 0.00 37 1011.5
20260507175359 55 341 0.0 6.0 0.00 0.00 0.00 36 1011.4
20260507175342 56 8 0.0 6.0 0.00 0.00 0.00 37 1011.4
20260507175307 55 341 0.0 6.0 0.00 0.00 0.00 36 1011.4
20260507174853 55 182 0.0 6.0 0.00 0.00 0.00 35 1011.4
20260507174653 55 235 0.0 6.0 0.00 0.00 0.00 37 1011.5
20260507174602 54 257 0.0 6.0 0.00 0.00 0.00 35 1011.5
20260507174552 54 234 0.0 6.0 0.00 0.00 0.00 39 1011.5
20260507174254 54 244 0.0 7.0 0.00 0.00 0.00 41 1011.5
20260507174054 53 214 0.0 7.0 0.00 0.00 0.00 35 1011.5
20260507173853 53 250 0.0 7.0 0.00 0.00 0.00 42 1011.5
20260507173654 53 226 0.0 7.0 0.00 0.00 0.00 38 1011.6
20260507173553 54 226 0.0 7.0 0.00 0.00 0.00 34 1011.6
20260507173453 55 238 0.0 9.0 0.00 0.00 0.00 37 1011.6
20260507173253 55 250 0.0 9.0 0.00 0.00 0.00 39 1011.6
20260507173054 55 347 0.0 9.0 0.00 0.00 0.00 40 1011.6
20260507172955 54 31 0.0 9.0 0.00 0.00 0.00 35 1011.6
20260507172653 55 278 0.0 9.0 0.00 0.00 0.00 34 1011.6
20260507172548 55 28 0.0 9.0 0.00 0.00 0.00 37 1011.6
20260507172453 55 31 0.0 7.0 0.00 0.00 0.00 41 1011.6
20260507172254 54 243 0.0 9.0 0.00 0.00 0.00 36 1011.8
20260507172049 54 245 0.0 9.0 0.00 0.00 0.00 37 1011.7
20260507171853 54 221 0.0 9.0 0.00 0.00 0.00 33 1011.8
20260507171654 55 192 0.0 9.0 0.00 0.00 0.00 37 1011.9
20260507171547 55 254 0.0 9.0 0.00 0.00 0.00 36 1011.8
20260507171454 55 261 0.0 9.0 0.00 0.00 0.00 35 1011.8
20260507171253 55 255 0.0 5.0 0.00 0.00 0.00 37 1011.7
20260507171157 54 120 0.0 5.0 0.00 0.00 0.00 38 1011.8
20260507171047 54 120 0.0 5.0 0.00 0.00 0.00 38 1011.8
20260507170853 54 227 0.0 7.0 0.00 0.00 0.00 39 1011.8
20260507170653 54 227 0.0 7.0 0.00 0.00 0.00 37 1011.9
20260507170544 54 66 0.0 7.0 0.00 0.00 0.00 39 1011.9
20260507170453 54 240 0.0 7.0 0.00 0.00 0.00 38 1011.9
20260507170357 53 235 0.0 7.0 0.00 0.00 0.00 35 1011.9
20260507170341 53 240 0.0 7.0 0.00 0.00 0.00 37 1011.9
20260507170307 53 235 0.0 7.0 0.00 0.00 0.00 35 1011.8
20260507165854 53 186 0.0 7.0 0.00 0.00 0.00 36 1011.9
20260507165653 53 231 0.0 5.0 0.00 0.00 0.00 39 1011.9
20260507165557 53 223 0.0 4.0 0.00 0.00 0.00 37 1012.0
20260507165544 53 264 0.0 5.0 0.00 0.00 0.00 38 1011.9
20260507165253 53 259 0.0 5.0 0.00 0.00 0.00 40 1012.0
20260507165054 53 28 0.0 6.0 0.00 0.00 0.00 42 1011.9
20260507165042 53 27 0.0 6.0 0.00 0.00 0.00 42 1011.9
20260507164853 51 199 0.0 6.0 0.00 0.00 0.00 41 1012.0
20260507164655 51 199 0.0 6.0 0.00 0.00 0.00 41 1012.0
20260507164543 51 231 0.0 9.0 0.00 0.00 0.00 40 1012.1
20260507164453 52 244 0.0 9.0 0.00 0.00 0.00 43 1012.1
20260507164253 51 247 0.0 9.0 0.00 0.00 0.00 47 1012.0
20260507164059 51 306 0.0 9.0 0.00 0.00 0.00 48 1012.1
20260507164043 51 305 0.0 9.0 0.00 0.00 0.00 40 1012.0
20260507163953 51 258 0.0 9.0 0.00 0.00 0.00 41 1012.1
20260507163653 52 227 0.0 9.0 0.00 0.00 0.00 39 1012.0
20260507163541 52 224 0.0 7.0 0.00 0.00 0.00 41 1012.1
20260507163454 53 213 0.0 6.0 0.00 0.00 0.00 44 1012.1
20260507163254 52 202 0.0 6.0 0.00 0.00 0.00 42 1012.1
20260507163041 52 247 0.0 6.0 0.00 0.00 0.00 42 1012.1
20260507162853 53 230 0.0 6.0 0.00 0.00 0.00 40 1012.2
20260507162752 53 262 0.0 6.0 0.00 0.00 0.00 43 1012.2
20260507162539 52 276 0.0 6.0 0.00 0.00 0.00 44 1012.2
20260507162454 52 0 0.0 5.0 0.00 0.00 0.00 43 1012.2
20260507162344 52 62 0.0 4.0 0.00 0.00 0.00 44 1012.2
20260507162331 52 257 0.0 5.0 0.00 0.00 0.00 39 1012.2
20260507162300 52 63 0.0 4.0 0.00 0.00 0.00 44 1012.2
20260507161853 52 66 0.0 4.0 0.00 0.00 0.00 40 1012.1
20260507161653 53 59 0.0 4.0 0.00 0.00 0.00 41 1012.1
20260507161540 53 0 0.0 6.0 0.00 0.00 0.00 41 1012.2
20260507161454 53 0 0.0 6.0 0.00 0.00 0.00 41 1012.2
20260507161253 53 54 0.0 6.0 0.00 0.00 0.00 40 1012.2
20260507161154 53 28 0.0 6.0 0.00 0.00 0.00 44 1012.3
20260507161037 53 28 0.0 6.0 0.00 0.00 0.00 44 1012.3
20260507160853 53 37 0.0 6.0 0.00 0.00 0.00 44 1012.2
20260507160653 51 54 0.0 6.0 0.00 0.00 0.00 42 1012.2
20260507160534 51 100 0.0 5.0 0.00 0.00 0.00 40 1012.3
20260507160453 51 164 0.0 5.0 0.00 0.00 0.00 43 1012.3
20260507160253 51 234 0.0 5.0 0.00 0.00 0.00 39 1012.3
20260507160054 52 228 0.0 5.0 0.00 0.00 0.00 40 1012.3
20260507160031 52 350 0.0 4.0 0.00 0.00 0.00 40 1012.3
20260507155855 52 42 0.0 4.0 0.00 0.00 0.00 40 1012.4
20260507155654 51 235 0.0 5.0 0.00 0.00 0.00 42 1012.3
20260507155529 51 235 0.0 5.0 0.00 0.00 0.00 43 1012.4
20260507155454 51 235 0.0 5.0 0.00 0.00 0.00 43 1012.3
20260507155253 51 230 0.0 5.0 0.00 0.00 0.00 47 1012.2
20260507155055 50 243 0.0 5.0 0.00 0.00 0.00 44 1012.2
20260507155029 50 243 0.0 5.0 0.00 0.00 0.00 44 1012.3
20260507154853 49 243 0.0 5.0 0.00 0.00 0.00 40 1012.3
20260507154655 50 243 0.0 5.0 0.00 0.00 0.00 42 1012.3
20260507154529 50 240 0.0 5.0 0.00 0.00 0.00 42 1012.4
20260507154455 50 261 0.0 5.0 0.00 0.00 0.00 40 1012.4
20260507154352 51 261 0.0 4.0 0.00 0.00 0.00 42 1012.3
20260507154057 51 265 0.0 4.0 0.00 0.00 0.00 45 1012.3
20260507154030 51 235 0.0 4.0 0.00 0.00 0.00 45 1012.2
20260507153853 51 237 0.0 4.0 0.00 0.00 0.00 44 1012.2
20260507153653 50 233 0.0 4.0 0.00 0.00 0.00 42 1012.3
20260507153529 50 30 0.0 6.0 0.00 0.00 0.00 42 1012.4
20260507153451 50 30 0.0 6.0 0.00 0.00 0.00 44 1012.4
20260507153250 50 159 0.0 6.0 0.00 0.00 0.00 45 1012.4
20260507153051 50 159 0.0 6.0 0.00 0.00 0.00 43 1012.3
20260507153030 50 159 0.0 6.0 0.00 0.00 0.00 42 1012.4
20260507152850 49 159 0.0 6.0 0.00 0.00 0.00 41 1012.4
20260507152752 50 21 0.0 6.0 0.00 0.00 0.00 45 1012.4
20260507152526 50 226 0.0 6.0 0.00 0.00 0.00 45 1012.4
20260507152450 50 226 0.0 6.0 0.00 0.00 0.00 45 1012.4
20260507152250 50 237 0.0 6.0 0.00 0.00 0.00 43 1012.4
20260507152024 49 235 0.0 6.0 0.00 0.00 0.00 44 1012.5
20260507151852 49 234 0.0 6.0 0.00 0.00 0.00 43 1012.5
20260507151649 48 223 0.0 6.0 0.00 0.00 0.00 43 1012.4
20260507151522 49 223 0.0 6.0 0.00 0.00 0.00 44 1012.4
20260507151450 49 223 0.0 6.0 0.00 0.00 0.00 43 1012.4
20260507151249 49 250 0.0 4.0 0.00 0.00 0.00 45 1012.5
20260507151021 48 250 0.0 4.0 0.00 0.00 0.00 43 1012.4
20260507150848 48 248 0.0 4.0 0.00 0.00 0.00 45 1012.5
20260507150646 48 203 0.0 4.0 0.00 0.00 0.00 47 1012.4
20260507150544 48 204 0.0 4.0 0.00 0.00 0.00 50 1012.4
20260507150520 48 203 0.0 4.0 0.00 0.00 0.00 48 1012.4
20260507150330 48 193 0.0 4.0 0.00 0.00 0.00 49 1012.5
20260507150315 48 204 0.0 4.0 0.00 0.00 0.00 49 1012.3
20260507150245 48 193 0.0 4.0 0.00 0.00 0.00 49 1012.5
20260507145842 47 193 0.0 4.0 0.00 0.00 0.00 47 1012.4
20260507145641 47 193 0.0 5.0 0.00 0.00 0.00 49 1012.5
20260507145508 47 193 0.0 5.0 0.00 0.00 0.00 49 1012.5
20260507145443 47 193 0.0 5.0 0.00 0.00 0.00 49 1012.5
20260507145238 47 193 0.0 5.0 0.00 0.00 0.00 50 1012.4
20260507145038 47 193 0.0 5.0 0.00 0.00 0.00 50 1012.4
20260507145003 47 243 0.0 5.0 0.00 0.00 0.00 49 1012.4
20260507144937 47 243 0.0 5.0 0.00 0.00 0.00 48 1012.5
20260507144637 48 247 0.0 4.0 0.00 0.00 0.00 50 1012.5
20260507144504 48 266 0.0 4.0 0.00 0.00 0.00 50 1012.5
20260507144437 48 266 0.0 4.0 0.00 0.00 0.00 50 1012.6
20260507144236 49 317 0.0 3.0 0.00 0.00 0.00 48 1012.5
20260507144035 49 317 0.0 3.0 0.00 0.00 0.00 48 1012.6
20260507144002 49 317 0.0 3.0 0.00 0.00 0.00 49 1012.6
20260507143833 49 38 0.0 2.0 0.00 0.00 0.00 51 1012.4
20260507143633 49 38 0.0 4.0 0.00 0.00 0.00 53 1012.6
20260507143503 48 38 0.0 4.0 0.00 0.00 0.00 48 1012.4
20260507143431 48 38 0.0 4.0 0.00 0.00 0.00 48 1012.5
20260507143236 48 38 0.0 4.0 0.00 0.00 0.00 50 1012.5
20260507143035 48 38 0.0 4.0 0.00 0.00 0.00 51 1012.6
20260507143004 48 38 0.0 4.0 0.00 0.00 0.00 50 1012.6
20260507142935 47 38 0.0 4.0 0.00 0.00 0.00 49 1012.6
20260507142636 47 238 0.0 3.0 0.00 0.00 0.00 52 1012.6
20260507142501 47 238 0.0 3.0 0.00 0.00 0.00 52 1012.6
20260507142412 47 238 0.0 3.0 0.00 0.00 0.00 51 1012.6
20260507142210 47 238 0.0 3.0 0.00 0.00 0.00 51 1012.7
20260507142002 46 238 0.0 3.0 0.00 0.00 0.00 50 1012.7
20260507141807 46 238 0.0 3.0 0.00 0.00 0.00 50 1012.7
20260507141607 47 233 0.0 3.0 0.00 0.00 0.00 51 1012.7
20260507141459 47 233 0.0 3.0 0.00 0.00 0.00 51 1012.7
20260507141411 47 233 0.0 3.0 0.00 0.00 0.00 52 1012.7
20260507141310 47 233 0.0 5.0 0.00 0.00 0.00 52 1012.7
20260507141021 47 233 0.0 5.0 0.00 0.00 0.00 53 1012.7
20260507140959 46 233 0.0 5.0 0.00 0.00 0.00 53 1012.7
20260507140807 46 233 0.0 5.0 0.00 0.00 0.00 54 1012.7
20260507140606 46 233 0.0 5.0 0.00 0.00 0.00 54 1012.6
20260507140455 46 233 0.0 5.0 0.00 0.00 0.00 52 1012.7
20260507140406 46 233 0.0 5.0 0.00 0.00 0.00 52 1012.7
20260507140204 46 241 0.0 4.0 0.00 0.00 0.00 54 1012.7
20260507140011 45 241 0.0 4.0 0.00 0.00 0.00 53 1012.7
20260507135956 45 241 0.0 4.0 0.00 0.00 0.00 53 1012.7
20260507135803 46 233 0.0 4.0 0.00 0.00 0.00 54 1012.7
20260507135706 46 233 0.0 4.0 0.00 0.00 0.00 57 1012.8
20260507135455 46 231 0.0 4.0 0.00 0.00 0.00 57 1012.8
20260507135359 46 233 0.0 4.0 0.00 0.00 0.00 59 1012.7
20260507135157 45 233 0.0 4.0 0.00 0.00 0.00 60 1012.7
20260507135003 45 228 0.0 3.0 0.00 0.00 0.00 60 1012.7
20260507134953 45 228 0.0 3.0 0.00 0.00 0.00 61 1012.7
20260507134854 45 228 0.0 2.0 0.00 0.00 0.00 63 1012.7
20260507134557 45 228 0.0 2.0 0.00 0.00 0.00 63 1012.7
20260507134452 45 228 0.0 2.0 0.00 0.00 0.00 63 1012.8
20260507134356 45 228 0.0 2.0 0.00 0.00 0.00 66 1012.8
20260507134300 44 228 0.0 2.0 0.00 0.00 0.00 68 1012.6
20260507134244 44 228 0.0 2.0 0.00 0.00 0.00 67 1012.8
20260507134214 44 228 0.0 2.0 0.00 0.00 0.00 68 1012.6
20260507133754 44 228 0.0 3.0 0.00 0.00 0.00 69 1012.8
20260507133553 43 228 0.0 3.0 0.00 0.00 0.00 68 1012.7
20260507133455 43 228 0.0 3.0 0.00 0.00 0.00 68 1012.8
20260507133354 43 228 0.0 3.0 0.00 0.00 0.00 68 1012.7
20260507133253 43 228 0.0 3.0 0.00 0.00 0.00 69 1012.8
20260507132952 43 228 0.0 3.0 0.00 0.00 0.00 70 1012.7
20260507132753 42 228 0.0 2.0 0.00 0.00 0.00 72 1012.8
20260507132551 42 228 0.0 2.0 0.00 0.00 0.00 73 1012.8
20260507132452 42 228 0.0 2.0 0.00 0.00 0.00 73 1012.9
20260507132346 42 228 0.0 2.0 0.00 0.00 0.00 73 1012.8
20260507132145 42 228 0.0 2.0 0.00 0.00 0.00 74 1012.8
20260507131945 41 228 0.0 2.0 0.00 0.00 0.00 76 1012.8
20260507131745 41 228 0.0 2.0 0.00 0.00 0.00 76 1012.8
20260507131644 41 228 0.0 2.0 0.00 0.00 0.00 78 1012.8
20260507131449 41 228 0.0 2.0 0.00 0.00 0.00 78 1012.8
20260507131345 41 228 0.0 2.0 0.00 0.00 0.00 79 1012.9
20260507131140 40 228 0.0 2.0 0.00 0.00 0.00 80 1012.9
20260507131041 40 228 0.0 1.0 0.00 0.00 0.00 82 1012.9
20260507130946 40 228 0.0 1.0 0.00 0.00 0.00 81 1012.9
20260507130740 40 228 0.0 1.0 0.00 0.00 0.00 83 1012.9
20260507130539 39 228 0.0 1.0 0.00 0.00 0.00 84 1012.9
20260507130447 39 228 0.0 1.0 0.00 0.00 0.00 85 1012.9
20260507130339 39 228 0.0 1.0 0.00 0.00 0.00 86 1012.8
20260507130136 38 228 0.0 1.0 0.00 0.00 0.00 87 1012.9
20260507125937 38 228 0.0 1.0 0.00 0.00 0.00 88 1012.9
20260507125735 38 228 0.0 1.0 0.00 0.00 0.00 89 1012.9
20260507125534 38 228 0.0 0.0 0.00 0.00 0.00 89 1012.9
20260507125446 37 228 0.0 0.0 0.00 0.00 0.00 90 1013.0
20260507125439 37 228 0.0 0.0 0.00 0.00 0.00 90 1012.9
20260507125134 37 228 0.0 0.0 0.00 0.00 0.00 90 1013.0
20260507124937 37 228 0.0 0.0 0.00 0.00 0.00 91 1012.9
20260507124733 36 228 0.0 0.0 0.00 0.00 0.00 91 1013.0
20260507124534 36 228 0.0 0.0 0.00 0.00 0.00 92 1013.0
20260507124446 36 228 0.0 0.0 0.00 0.00 0.00 92 1012.9
20260507124331 35 228 0.0 0.0 0.00 0.00 0.00 92 1012.9
20260507124133 35 228 0.0 0.0 0.00 0.00 0.00 92 1012.9
20260507123932 35 228 0.0 0.0 0.00 0.00 0.00 92 1013.0
20260507123833 34 228 0.0 0.0 0.00 0.00 0.00 92 1013.0
20260507123530 34 228 0.0 0.0 0.00 0.00 0.00 92 1013.0
20260507123441 34 228 0.0 0.0 0.00 0.00 0.00 92 1013.0
20260507123331 34 228 0.0 0.0 0.00 0.00 0.00 92 1013.0
20260507123133 33 228 0.0 0.0 0.00 0.00 0.00 92 1013.0
20260507122933 33 228 0.0 0.0 0.00 0.00 0.00 92 1013.0
20260507122733 33 228 0.0 0.0 0.00 0.00 0.00 92 1013.0
20260507122531 33 228 0.0 0.0 0.00 0.00 0.00 92 1013.0
20260507122438 33 228 0.0 0.0 0.00 0.00 0.00 92 1013.0
20260507122432 33 228 0.0 0.0 0.00 0.00 0.00 92 1013.0
20260507122131 32 228 0.0 0.0 0.00 0.00 0.00 92 1013.0
20260507121930 32 228 0.0 0.0 0.00 0.00 0.00 92 1013.0
20260507121731 32 228 0.0 0.0 0.00 0.00 0.00 92 1013.0
20260507121530 31 228 0.0 0.0 0.00 0.00 0.00 92 1013.1
20260507121438 31 228 0.0 0.0 0.00 0.00 0.00 92 1013.0
20260507121328 31 228 0.0 0.0 0.00 0.00 0.00 92 1013.0
20260507121129 31 228 0.0 0.0 0.00 0.00 0.00 91 1013.0
20260507120927 31 228 0.0 0.0 0.00 0.00 0.00 91 1013.1
20260507120824 31 228 0.0 0.0 0.00 0.00 0.00 91 1013.1
20260507120524 31 228 0.0 0.0 0.00 0.00 0.00 91 1013.0
20260507120434 31 228 0.0 0.0 0.00 0.00 0.00 91 1013.1
20260507120324 31 228 0.0 0.0 0.00 0.00 0.00 91 1013.1
20260507120122 30 228 0.0 0.0 0.00 0.00 0.00 91 1013.1
20260507115922 30 228 0.0 0.0 0.00 0.00 0.00 91 1013.1
20260507115723 30 228 0.0 0.0 0.00 0.00 0.00 91 1013.0
20260507115521 30 228 0.0 0.0 0.00 0.00 0.00 91 1013.1
20260507115432 30 228 0.0 0.0 0.00 0.00 0.00 91 1013.0
20260507115321 30 228 0.0 0.0 0.00 0.00 0.00 91 1013.0
20260507115120 30 228 0.0 0.0 0.00 0.00 0.00 91 1013.0
20260507115018 30 228 0.0 0.0 0.00 0.00 0.00 91 1013.0
20260507114932 30 228 0.0 0.0 0.00 0.00 0.00 91 1013.0
20260507114717 29 228 0.0 0.0 0.00 0.00 0.00 91 1013.0
20260507114516 29 228 0.0 0.0 0.00 0.00 0.00 91 1012.9
20260507114429 29 228 0.0 0.0 0.00 0.00 0.00 91 1012.9
20260507114316 29 228 0.0 0.0 0.00 0.00 0.00 91 1013.0
20260507114116 29 228 0.0 0.0 0.00 0.00 0.00 91 1013.0
20260507113918 29 228 0.0 0.0 0.00 0.00 0.00 91 1012.9
20260507113715 29 228 0.0 0.0 0.00 0.00 0.00 91 1012.9
20260507113515 29 228 0.0 0.0 0.00 0.00 0.00 91 1013.0
20260507113429 29 228 0.0 0.0 0.00 0.00 0.00 91 1012.9
20260507113413 29 228 0.0 0.0 0.00 0.00 0.00 91 1013.0
20260507113113 29 228 0.0 0.0 0.00 0.00 0.00 90 1012.9
20260507112910 29 228 0.0 0.0 0.00 0.00 0.00 90 1012.9
20260507112712 29 228 0.0 0.0 0.00 0.00 0.00 90 1012.9
20260507112510 29 228 0.0 0.0 0.00 0.00 0.00 90 1013.0
20260507112429 29 228 0.0 0.0 0.00 0.00 0.00 90 1012.9
20260507112307 29 228 0.0 0.0 0.00 0.00 0.00 90 1012.9
20260507112106 29 228 0.0 0.0 0.00 0.00 0.00 90 1013.0
20260507111905 29 228 0.0 0.0 0.00 0.00 0.00 90 1012.9
20260507111808 29 228 0.0 0.0 0.00 0.00 0.00 90 1013.0
20260507111506 29 228 0.0 0.0 0.00 0.00 0.00 90 1013.0
20260507111429 29 228 0.0 0.0 0.00 0.00 0.00 90 1012.9
20260507111306 29 228 0.0 0.0 0.00 0.00 0.00 90 1012.9
20260507111208 28 228 0.0 0.0 0.00 0.00 0.00 90 1012.9
20260507110905 28 228 0.0 0.0 0.00 0.00 0.00 90 1012.9
20260507110705 28 228 0.0 0.0 0.00 0.00 0.00 90 1013.0
20260507110506 29 228 0.0 0.0 0.00 0.00 0.00 90 1012.9
20260507110427 29 228 0.0 0.0 0.00 0.00 0.00 90 1013.0
20260507110305 29 228 0.0 0.0 0.00 0.00 0.00 90 1013.0
20260507110107 29 228 0.0 0.0 0.00 0.00 0.00 90 1013.0
20260507105905 29 228 0.0 0.0 0.00 0.00 0.00 90 1012.9
20260507105752 29 228 0.0 0.0 0.00 0.00 0.00 90 1012.9
20260507105729 29 228 0.0 0.0 0.00 0.00 0.00 90 1012.9
20260507105720 29 228 0.0 0.0 0.00 0.00 0.00 90 1012.9
20260507105307 29 228 0.0 0.0 0.00 0.00 0.00 90 1013.0
20260507105105 29 228 0.0 0.0 0.00 0.00 0.00 90 1013.0
20260507104906 29 228 0.0 0.0 0.00 0.00 0.00 90 1012.9
20260507104725 29 228 0.0 0.0 0.00 0.00 0.00 90 1012.9
20260507104719 29 228 0.0 0.0 0.00 0.00 0.00 90 1012.9
20260507104649 29 228 0.0 0.0 0.00 0.00 0.00 90 1012.9
20260507104258 29 228 0.0 0.0 0.00 0.00 0.00 90 1012.9
20260507104056 29 228 0.0 0.0 0.00 0.00 0.00 90 1012.9
20260507103951 29 228 0.0 0.0 0.00 0.00 0.00 90 1013.0
20260507103924 29 228 0.0 0.0 0.00 0.00 0.00 90 1013.0
20260507103730 29 228 0.0 0.0 0.00 0.00 0.00 89 1012.9
20260507103721 29 228 0.0 0.0 0.00 0.00 0.00 90 1012.9
20260507103650 29 228 0.0 0.0 0.00 0.00 0.00 89 1012.9
20260507103254 29 228 0.0 0.0 0.00 0.00 0.00 89 1013.0
20260507103053 29 228 0.0 0.0 0.00 0.00 0.00 89 1013.0
20260507102924 29 228 0.0 0.0 0.00 0.00 0.00 89 1013.0
20260507102852 29 228 0.0 0.0 0.00 0.00 0.00 89 1013.0
20260507102719 29 228 0.0 0.0 0.00 0.00 0.00 89 1013.0
20260507102711 29 228 0.0 0.0 0.00 0.00 0.00 89 1012.9
20260507102251 29 228 0.0 0.0 0.00 0.00 0.00 89 1013.0
20260507102051 29 228 0.0 0.0 0.00 0.00 0.00 89 1013.0
20260507101907 29 228 0.0 0.0 0.00 0.00 0.00 89 1013.0
20260507101850 29 228 0.0 0.0 0.00 0.00 0.00 89 1013.0
20260507101708 29 228 0.0 0.0 0.00 0.00 0.00 89 1012.9
20260507101658 29 228 0.0 0.0 0.00 0.00 0.00 89 1013.0
20260507101628 29 228 0.0 0.0 0.00 0.00 0.00 89 1012.9
20260507101245 29 228 0.0 0.0 0.00 0.00 0.00 89 1013.0
20260507101053 29 228 0.0 0.0 0.00 0.00 0.00 89 1013.0
20260507100943 29 228 0.0 0.0 0.00 0.00 0.00 89 1013.0
20260507100906 29 228 0.0 0.0 0.00 0.00 0.00 89 1013.0
20260507100643 29 228 0.0 0.0 0.00 0.00 0.00 89 1013.0
20260507100443 29 228 0.0 0.0 0.00 0.00 0.00 89 1013.0
20260507100407 29 228 0.0 0.0 0.00 0.00 0.00 89 1013.0
20260507100241 29 228 0.0 0.0 0.00 0.00 0.00 89 1012.9
20260507100052 29 228 0.0 0.0 0.00 0.00 0.00 89 1013.0
20260507095907 29 228 0.0 0.0 0.00 0.00 0.00 89 1013.0
20260507095841 29 228 0.0 0.0 0.00 0.00 0.00 89 1013.0
20260507095642 29 228 0.0 0.0 0.00 0.00 0.00 88 1013.0
20260507095439 29 228 0.0 0.0 0.00 0.00 0.00 88 1012.9
20260507095405 29 228 0.0 0.0 0.00 0.00 0.00 89 1012.9
20260507095239 29 228 0.0 0.0 0.00 0.00 0.00 88 1012.9
20260507095041 29 228 0.0 0.0 0.00 0.00 0.00 88 1013.0
20260507094903 29 228 0.0 0.0 0.00 0.00 0.00 88 1013.0
20260507094833 29 228 0.0 0.0 0.00 0.00 0.00 88 1013.0
20260507094633 29 228 0.0 0.0 0.00 0.00 0.00 88 1012.9
20260507094433 29 228 0.0 0.0 0.00 0.00 0.00 88 1013.0
20260507094402 30 228 0.0 0.0 0.00 0.00 0.00 88 1013.0
20260507094231 30 228 0.0 0.0 0.00 0.00 0.00 88 1013.1
20260507094033 30 228 0.0 0.0 0.00 0.00 0.00 88 1013.0
20260507093903 30 228 0.0 0.0 0.00 0.00 0.00 88 1013.0
20260507093830 30 228 0.0 0.0 0.00 0.00 0.00 88 1013.0
20260507093800 30 228 0.0 0.0 0.00 0.00 0.00 88 1013.0
20260507093706 30 228 0.0 0.0 0.00 0.00 0.00 88 1013.0
20260507093629 30 228 0.0 0.0 0.00 0.00 0.00 88 1013.0
20260507093236 30 228 0.0 0.0 0.00 0.00 0.00 88 1013.0
20260507093041 30 228 0.0 0.0 0.00 0.00 0.00 88 1012.9
20260507092841 30 228 0.0 0.0 0.00 0.00 0.00 88 1012.9
20260507092703 30 228 0.0 0.0 0.00 0.00 0.00 88 1012.9
20260507092654 30 228 0.0 0.0 0.00 0.00 0.00 88 1013.0
20260507092400 30 228 0.0 0.0 0.00 0.00 0.00 88 1012.9
20260507092155 30 228 0.0 0.0 0.00 0.00 0.00 88 1013.0
20260507092057 30 228 0.0 0.0 0.00 0.00 0.00 88 1012.9
20260507091905 30 228 0.0 0.0 0.00 0.00 0.00 88 1013.0
20260507091758 30 228 0.0 0.0 0.00 0.00 0.00 88 1013.0
20260507091723 30 228 0.0 0.0 0.00 0.00 0.00 88 1013.0
20260507091700 30 228 0.0 0.0 0.00 0.00 0.00 88 1013.0
20260507091353 30 228 0.0 0.0 0.00 0.00 0.00 88 1013.0
20260507091153 30 228 0.0 0.0 0.00 0.00 0.00 88 1013.0
20260507090943 30 228 0.0 0.0 0.00 0.00 0.00 88 1013.0
20260507090902 30 228 0.0 0.0 0.00 0.00 0.00 88 1013.0
20260507090748 30 228 0.0 0.0 0.00 0.00 0.00 88 1013.1
20260507090709 30 228 0.0 0.0 0.00 0.00 0.00 88 1013.1
20260507090649 30 228 0.0 0.0 0.00 0.00 0.00 88 1013.0
20260507090342 30 228 0.0 0.0 0.00 0.00 0.00 87 1013.0
20260507090245 30 228 0.0 0.0 0.00 0.00 0.00 88 1013.0
20260507085939 30 228 0.0 0.0 0.00 0.00 0.00 88 1013.0
20260507085900 30 228 0.0 0.0 0.00 0.00 0.00 88 1013.0
20260507085745 30 228 0.0 0.0 0.00 0.00 0.00 87 1013.1
20260507085527 30 228 0.0 0.0 0.00 0.00 0.00 87 1013.1
20260507085355 30 228 0.0 0.0 0.00 0.00 0.00 87 1013.1
20260507085326 30 228 0.0 0.0 0.00 0.00 0.00 87 1013.0
20260507085120 30 228 0.0 0.0 0.00 0.00 0.00 87 1013.0
20260507084919 31 228 0.0 0.0 0.00 0.00 0.00 87 1013.1
20260507084853 31 228 0.0 0.0 0.00 0.00 0.00 87 1013.1
20260507084741 31 228 0.0 0.0 0.00 0.00 0.00 87 1013.0
20260507084721 31 228 0.0 0.0 0.00 0.00 0.00 87 1013.1
20260507084703 31 228 0.0 0.0 0.00 0.00 0.00 87 1013.1
20260507084322 31 228 0.0 0.0 0.00 0.00 0.00 87 1013.1
20260507084124 31 228 0.0 0.0 0.00 0.00 0.00 87 1013.1
20260507083921 31 228 0.0 0.0 0.00 0.00 0.00 87 1013.1
20260507083852 31 228 0.0 0.0 0.00 0.00 0.00 87 1013.1
20260507083718 31 228 0.0 0.0 0.00 0.00 0.00 87 1013.1
20260507083655 31 228 0.0 0.0 0.00 0.00 0.00 87 1013.1
20260507083626 31 228 0.0 0.0 0.00 0.00 0.00 87 1013.1
20260507083313 31 228 0.0 0.0 0.00 0.00 0.00 87 1013.1
20260507083110 31 228 0.0 0.0 0.00 0.00 0.00 86 1013.1
20260507082909 31 228 0.0 0.0 0.00 0.00 0.00 86 1013.2
20260507082848 31 228 0.0 0.0 0.00 0.00 0.00 86 1013.1
20260507082710 31 228 0.0 0.0 0.00 0.00 0.00 86 1013.2
20260507082656 31 228 0.0 0.0 0.00 0.00 0.00 92 1013.2
20260507082629 31 228 0.0 0.0 0.00 0.00 0.00 86 1013.2
20260507082103 31 228 0.0 0.0 0.00 0.00 0.00 86 1013.1
20260507081848 31 228 0.0 0.0 0.00 0.00 0.00 86 1013.1
20260507081658 31 228 0.0 0.0 0.00 0.00 0.00 86 1013.1
20260507081504 31 228 0.0 0.0 0.00 0.00 0.00 86 1013.1
20260507081350 31 228 0.0 0.0 0.00 0.00 0.00 86 1013.1
20260507081252 31 228 0.0 0.0 0.00 0.00 0.00 86 1013.1
20260507081055 31 228 0.0 0.0 0.00 0.00 0.00 85 1013.1
20260507080856 31 228 0.0 0.0 0.00 0.00 0.00 85 1013.1
20260507080800 31 228 0.0 0.0 0.00 0.00 0.00 86 1013.0
20260507080456 31 228 0.0 0.0 0.00 0.00 0.00 85 1013.0
20260507080353 31 228 0.0 0.0 0.00 0.00 0.00 85 1013.1
20260507080254 31 228 0.0 0.0 0.00 0.00 0.00 85 1013.1
20260507080222 32 228 0.0 0.0 0.00 0.00 0.00 85 1013.1
20260507080150 32 228 0.0 0.0 0.00 0.00 0.00 85 1013.1
20260507080109 32 228 0.0 0.0 0.00 0.00 0.00 85 1013.1
20260507075653 32 228 0.0 0.0 0.00 0.00 0.00 85 1013.1
20260507075452 32 228 0.0 0.0 0.00 0.00 0.00 85 1013.1
20260507075351 32 228 0.0 0.0 0.00 0.00 0.00 85 1013.1
20260507075252 32 228 0.0 0.0 0.00 0.00 0.00 85 1013.1
20260507075236 32 228 0.0 0.0 0.00 0.00 0.00 85 1013.0
20260507075145 32 228 0.0 0.0 0.00 0.00 0.00 85 1013.1
20260507075105 32 228 0.0 0.0 0.00 0.00 0.00 85 1013.1
20260507074653 32 228 0.0 0.0 0.00 0.00 0.00 85 1013.2
20260507074453 32 228 0.0 0.0 0.00 0.00 0.00 85 1013.2
20260507074351 32 228 0.0 0.0 0.00 0.00 0.00 85 1013.2
20260507074254 32 228 0.0 0.0 0.00 0.00 0.00 85 1013.1
20260507074152 33 228 0.0 0.0 0.00 0.00 0.00 84 1013.2
20260507074137 32 228 0.0 0.0 0.00 0.00 0.00 84 1013.2
20260507074104 33 228 0.0 0.0 0.00 0.00 0.00 84 1013.2
20260507073652 33 228 0.0 0.0 0.00 0.00 0.00 84 1013.3
20260507073551 33 228 0.0 0.0 0.00 0.00 0.00 84 1013.3
20260507073351 33 228 0.0 0.0 0.00 0.00 0.00 84 1013.3
20260507073253 33 228 0.0 0.0 0.00 0.00 0.00 84 1013.3
20260507073145 33 228 0.0 0.0 0.00 0.00 0.00 84 1013.4
20260507073135 33 228 0.0 0.0 0.00 0.00 0.00 84 1013.3
20260507073104 33 228 0.0 0.0 0.00 0.00 0.00 84 1013.4
20260507072653 33 228 0.0 0.0 0.00 0.00 0.00 84 1013.4
20260507072642 33 228 0.0 0.0 0.00 0.00 0.00 84 1013.4
20260507072619 33 228 0.0 0.0 0.00 0.00 0.00 84 1013.3
20260507072254 33 228 0.0 0.0 0.00 0.00 0.00 84 1013.4
20260507072052 33 228 0.0 0.0 0.00 0.00 0.00 83 1013.4
20260507071958 33 228 0.0 0.0 0.00 0.00 0.00 83 1013.4
20260507071853 33 228 0.0 0.0 0.00 0.00 0.00 83 1013.4
20260507071658 33 228 0.0 0.0 0.00 0.00 0.00 83 1013.4
20260507071644 34 228 0.0 0.0 0.00 0.00 0.00 83 1013.4
20260507071621 34 228 0.0 0.0 0.00 0.00 0.00 83 1013.4
20260507071252 34 228 0.0 0.0 0.00 0.00 0.00 83 1013.5
20260507071052 34 228 0.0 0.0 0.00 0.00 0.00 83 1013.5
20260507070956 34 228 0.0 0.0 0.00 0.00 0.00 83 1013.5
20260507070852 34 228 0.0 0.0 0.00 0.00 0.00 83 1013.5
20260507070659 34 228 0.0 0.0 0.00 0.00 0.00 82 1013.5
20260507070653 34 228 0.0 0.0 0.00 0.00 0.00 82 1013.6
20260507070621 34 228 0.0 0.0 0.00 0.00 0.00 82 1013.6
20260507070252 34 228 0.0 0.0 0.00 0.00 0.00 82 1013.6
20260507070153 34 228 0.0 0.0 0.00 0.00 0.00 82 1013.6
20260507065852 34 228 0.0 0.0 0.00 0.00 0.00 82 1013.6
20260507065743 35 228 0.0 0.0 0.00 0.00 0.00 81 1013.8
20260507065732 35 228 0.0 0.0 0.00 0.00 0.00 82 1013.6
20260507065632 35 228 0.0 0.0 0.00 0.00 0.00 81 1013.7
20260507065252 35 228 0.0 0.0 0.00 0.00 0.00 81 1013.7
20260507065053 35 228 0.0 0.0 0.00 0.00 0.00 81 1013.7
20260507064852 35 228 0.0 0.0 0.00 0.00 0.00 81 1013.7
20260507064652 35 228 0.0 0.0 0.00 0.00 0.00 81 1013.7
20260507064550 35 228 0.0 0.0 0.00 0.00 0.00 81 1013.7
20260507064352 35 228 0.0 0.0 0.00 0.00 0.00 81 1013.7
20260507064252 35 228 0.0 0.0 0.00 0.00 0.00 81 1013.8
20260507064052 35 228 0.0 0.0 0.00 0.00 0.00 81 1013.7
20260507063853 36 228 0.0 0.0 0.00 0.00 0.00 80 1013.8
20260507063654 36 228 0.0 0.0 0.00 0.00 0.00 80 1013.8
20260507063452 36 228 0.0 0.0 0.00 0.00 0.00 80 1013.8
20260507063351 36 228 0.0 0.0 0.00 0.00 0.00 80 1013.8
20260507063251 36 228 0.0 0.0 0.00 0.00 0.00 80 1013.8
20260507063053 36 228 0.0 0.0 0.00 0.00 0.00 80 1013.8
20260507062956 36 228 0.0 0.0 0.00 0.00 0.00 80 1013.8
20260507062852 36 228 0.0 0.0 0.00 0.00 0.00 80 1013.8
20260507062653 36 228 0.0 0.0 0.00 0.00 0.00 80 1013.8
20260507062452 36 228 0.0 0.0 0.00 0.00 0.00 80 1013.9
20260507062352 37 228 0.0 0.0 0.00 0.00 0.00 80 1013.8
20260507062252 37 228 0.0 0.0 0.00 0.00 0.00 80 1013.8
20260507062053 37 228 0.0 0.0 0.00 0.00 0.00 79 1013.9
20260507061852 37 228 0.0 0.0 0.00 0.00 0.00 79 1013.9
20260507061652 37 228 0.0 0.0 0.00 0.00 0.00 79 1013.9
20260507061555 37 228 0.0 0.0 0.00 0.00 0.00 79 1013.9
20260507061351 37 228 0.0 0.0 0.00 0.00 0.00 79 1013.9
20260507061252 37 228 0.0 0.0 0.00 0.00 0.00 79 1014.0
20260507061052 38 228 0.0 0.0 0.00 0.00 0.00 79 1014.0
20260507060852 38 228 0.0 0.0 0.00 0.00 0.00 79 1014.0
20260507060653 38 228 0.0 0.0 0.00 0.00 0.00 79 1014.0
20260507060451 38 228 0.0 0.0 0.00 0.00 0.00 79 1014.0
20260507060350 38 228 0.0 0.0 0.00 0.00 0.00 79 1014.0
20260507060252 38 228 0.0 0.0 0.00 0.00 0.00 79 1014.0
20260507060052 38 228 0.0 0.0 0.00 0.00 0.00 78 1014.0
20260507055957 38 228 0.0 0.0 0.00 0.00 0.00 78 1014.0
20260507055854 38 228 0.0 0.0 0.00 0.00 0.00 78 1014.0
20260507055659 38 228 0.0 0.0 0.00 0.00 0.00 78 1014.0
20260507055653 38 228 0.0 0.0 0.00 0.00 0.00 78 1014.0
20260507055620 38 228 0.0 0.0 0.00 0.00 0.00 78 1014.0
20260507055252 38 228 0.0 0.0 0.00 0.00 0.00 78 1014.0
20260507055052 38 228 0.0 0.0 0.00 0.00 0.00 78 1014.0
20260507054851 38 228 0.0 0.0 0.00 0.00 0.00 78 1013.9
20260507054654 39 228 0.0 0.0 0.00 0.00 0.00 78 1014.0
20260507054641 39 228 0.0 0.0 0.00 0.00 0.00 78 1014.0
20260507054636 39 228 0.0 0.0 0.00 0.00 0.00 77 1014.0
20260507054618 39 228 0.0 0.0 0.00 0.00 0.00 78 1013.9
20260507054051 39 228 0.0 0.0 0.00 0.00 0.00 77 1013.9
20260507053852 39 228 0.0 0.0 0.00 0.00 0.00 77 1014.1
20260507053658 39 228 0.0 0.0 0.00 0.00 0.00 77 1014.1
20260507053653 39 228 0.0 0.0 0.00 0.00 0.00 77 1014.0
20260507053621 39 228 0.0 0.0 0.00 0.00 0.00 77 1014.0
20260507053252 39 228 0.0 0.0 0.00 0.00 0.00 77 1014.0
20260507053055 39 228 0.0 0.0 0.00 0.00 0.00 77 1014.0
20260507052854 39 228 0.0 0.0 0.00 0.00 0.00 76 1014.0
20260507052752 39 228 0.0 0.0 0.00 0.00 0.00 76 1014.1
20260507052452 39 228 0.0 0.0 0.00 0.00 0.00 76 1014.1
20260507052350 39 228 0.0 0.0 0.00 0.00 0.00 76 1014.1
20260507052254 39 228 0.0 0.0 0.00 0.00 0.00 76 1014.0
20260507052052 39 228 0.0 0.0 0.00 0.00 0.00 76 1014.1
20260507051852 39 228 0.0 0.0 0.00 0.00 0.00 76 1014.1
20260507051651 39 228 0.0 0.0 0.00 0.00 0.00 76 1014.1
20260507051452 39 228 0.0 0.0 0.00 0.00 0.00 76 1014.1
20260507051353 39 228 0.0 0.0 0.00 0.00 0.00 76 1014.2
20260507051251 39 228 0.0 0.0 0.00 0.00 0.00 76 1014.1
20260507051151 39 228 0.0 0.0 0.00 0.00 0.00 76 1014.2
20260507050853 39 228 0.0 0.0 0.00 0.00 0.00 75 1014.2
20260507050637 39 228 0.0 0.0 0.00 0.00 0.00 75 1014.1
20260507050438 39 228 0.0 0.0 0.00 0.00 0.00 75 1014.2
20260507050344 39 228 0.0 0.0 0.00 0.00 0.00 75 1014.2
20260507050335 39 228 0.0 0.0 0.00 0.00 0.00 75 1014.2
20260507050040 39 228 0.0 0.0 0.00 0.00 0.00 74 1014.2
20260507045833 39 228 0.0 0.0 0.00 0.00 0.00 74 1014.2
20260507045633 39 228 0.0 0.0 0.00 0.00 0.00 74 1014.3
20260507045432 39 228 0.0 0.0 0.00 0.00 0.00 74 1014.2
20260507045340 39 228 0.0 0.0 0.00 0.00 0.00 75 1014.1
20260507045233 39 228 0.0 0.0 0.00 0.00 0.00 75 1014.3
20260507045037 39 228 0.0 0.0 0.00 0.00 0.00 74 1014.2
20260507044833 39 228 0.0 0.0 0.00 0.00 0.00 74 1014.3
20260507044738 39 228 0.0 0.0 0.00 0.00 0.00 74 1014.2
20260507044405 39 228 0.0 0.0 0.00 0.00 0.00 74 1014.2
20260507044332 39 228 0.0 0.0 0.00 0.00 0.00 74 1014.2
20260507044203 39 228 0.0 0.0 0.00 0.00 0.00 74 1014.3
20260507044003 39 228 0.0 0.0 0.00 0.00 0.00 74 1014.3
20260507043804 39 228 0.0 0.0 0.00 0.00 0.00 74 1014.3
20260507043639 39 228 0.0 0.0 0.00 0.00 0.00 74 1014.3
20260507043630 39 228 0.0 0.0 0.00 0.00 0.00 74 1014.3
20260507043554 39 228 0.0 0.0 0.00 0.00 0.00 74 1014.3
20260507043200 39 228 0.0 0.0 0.00 0.00 0.00 74 1014.3
20260507043055 39 228 0.0 0.0 0.00 0.00 0.00 74 1014.3
20260507042830 39 228 0.0 0.0 0.00 0.00 0.00 73 1014.4
20260507042753 39 228 0.0 0.0 0.00 0.00 0.00 73 1014.4
20260507042635 39 228 0.0 0.0 0.00 0.00 0.00 73 1014.4
20260507042622 39 228 0.0 0.0 0.00 0.00 0.00 73 1014.4
20260507042550 39 228 0.0 0.0 0.00 0.00 0.00 73 1014.4
20260507042252 39 228 0.0 0.0 0.00 0.00 0.00 73 1014.4
20260507041953 39 228 0.0 0.0 0.00 0.00 0.00 72 1014.4
20260507041830 39 228 0.0 0.0 0.00 0.00 0.00 72 1014.4
20260507041752 39 228 0.0 0.0 0.00 0.00 0.00 72 1014.4
20260507041638 39 228 0.0 0.0 0.00 0.00 0.00 73 1014.6
20260507041625 39 228 0.0 0.0 0.00 0.00 0.00 72 1014.5
20260507041550 39 228 0.0 0.0 0.00 0.00 0.00 73 1014.4
20260507041151 39 228 0.0 0.0 0.00 0.00 0.00 73 1014.5
20260507040950 39 228 0.0 0.0 0.00 0.00 0.00 73 1014.5
20260507040831 39 228 0.0 0.0 0.00 0.00 0.00 73 1014.4
20260507040750 39 228 0.0 0.0 0.00 0.00 0.00 73 1014.4
20260507040718 39 228 0.0 0.0 0.00 0.00 0.00 73 1014.5
20260507040552 39 228 0.0 0.0 0.00 0.00 0.00 73 1014.5
20260507040135 39 228 0.0 0.0 0.00 0.00 0.00 73 1014.5
20260507035937 39 228 0.0 0.0 0.00 0.00 0.00 73 1014.5
20260507035805 39 228 0.0 0.0 0.00 0.00 0.00 73 1014.5
20260507035736 39 228 0.0 0.0 0.00 0.00 0.00 73 1014.5
20260507035534 39 228 0.0 0.0 0.00 0.00 0.00 73 1014.6
20260507035335 39 228 0.0 0.0 0.00 0.00 0.00 73 1014.5
20260507035306 39 228 0.0 0.0 0.00 0.00 0.00 73 1014.5
20260507035135 39 228 0.0 0.0 0.00 0.00 0.00 73 1014.5
20260507035034 39 228 0.0 0.0 0.00 0.00 0.00 74 1014.5
20260507034808 39 228 0.0 0.0 0.00 0.00 0.00 74 1014.5
20260507034732 39 228 0.0 0.0 0.00 0.00 0.00 74 1014.6
20260507034512 39 228 0.0 0.0 0.00 0.00 0.00 74 1014.6
20260507034303 39 228 0.0 0.0 0.00 0.00 0.00 74 1014.6
20260507034113 39 228 0.0 0.0 0.00 0.00 0.00 74 1014.6
20260507033911 39 228 0.0 0.0 0.00 0.00 0.00 73 1014.6
20260507033802 39 228 0.0 0.0 0.00 0.00 0.00 73 1014.6
20260507033711 39 228 0.0 0.0 0.00 0.00 0.00 73 1014.7
20260507033510 39 228 0.0 0.0 0.00 0.00 0.00 73 1014.7
20260507033309 39 228 0.0 0.0 0.00 0.00 0.00 73 1014.6
20260507033256 39 228 0.0 0.0 0.00 0.00 0.00 73 1014.6
20260507033211 39 228 0.0 0.0 0.00 0.00 0.00 73 1014.7
20260507032910 39 228 0.0 0.0 0.00 0.00 0.00 73 1014.7
20260507032757 39 228 0.0 0.0 0.00 0.00 0.00 73 1014.6
20260507032708 39 228 0.0 0.0 0.00 0.00 0.00 73 1014.6
20260507032505 39 228 0.0 0.0 0.00 0.00 0.00 73 1014.6
20260507032308 39 228 0.0 0.0 0.00 0.00 0.00 72 1014.7
20260507032258 39 228 0.0 0.0 0.00 0.00 0.00 72 1014.7
20260507032106 39 228 0.0 0.0 0.00 0.00 0.00 72 1014.7
20260507031904 39 228 0.0 1.0 0.00 0.00 0.00 72 1014.6
20260507031756 39 228 0.0 1.0 0.00 0.00 0.00 72 1014.7
20260507031702 39 228 0.0 1.0 0.00 0.00 0.00 72 1014.7
20260507031641 39 228 0.0 1.0 0.00 0.00 0.00 71 1014.7
20260507031555 39 228 0.0 1.0 0.00 0.00 0.00 71 1014.7
20260507031513 39 228 0.0 1.0 0.00 0.00 0.00 71 1014.7
20260507031102 39 228 0.0 1.0 0.00 0.00 0.00 71 1014.7
20260507030905 39 228 0.0 0.0 0.00 0.00 0.00 71 1014.8
20260507030758 39 228 0.0 0.0 0.00 0.00 0.00 71 1014.8
20260507030700 39 228 0.0 0.0 0.00 0.00 0.00 71 1014.8
20260507030550 39 228 0.0 0.0 0.00 0.00 0.00 71 1014.8
20260507030541 39 228 0.0 0.0 0.00 0.00 0.00 71 1014.8
20260507030512 39 228 0.0 0.0 0.00 0.00 0.00 71 1014.8
20260507030056 39 228 0.0 0.0 0.00 0.00 0.00 70 1014.8
20260507025858 39 228 0.0 0.0 0.00 0.00 0.00 70 1014.8
20260507025806 39 228 0.0 0.0 0.00 0.00 0.00 70 1014.8
20260507025755 39 228 0.0 0.0 0.00 0.00 0.00 70 1014.7
20260507025557 40 228 0.0 0.0 0.00 0.00 0.00 70 1014.8
20260507025541 39 228 0.0 0.0 0.00 0.00 0.00 70 1015.0
20260507025506 40 228 0.0 0.0 0.00 0.00 0.00 70 1014.8
20260507025053 39 228 0.0 0.0 0.00 0.00 0.00 70 1014.7
20260507024851 39 228 0.0 0.0 0.00 0.00 0.00 69 1014.8
20260507024753 40 228 0.0 0.0 0.00 0.00 0.00 69 1014.8
20260507024651 40 228 0.0 0.0 0.00 0.00 0.00 69 1014.7
20260507024556 40 228 0.0 0.0 0.00 0.00 0.00 69 1014.8
20260507024539 40 228 0.0 0.0 0.00 0.00 0.00 69 1014.7
20260507024249 40 228 0.0 0.0 0.00 0.00 0.00 69 1014.8
20260507024145 40 228 0.0 0.0 0.00 0.00 0.00 68 1014.8
20260507023850 40 228 0.0 0.0 0.00 0.00 0.00 69 1014.7
20260507023751 40 228 0.0 0.0 0.00 0.00 0.00 69 1014.7
20260507023648 40 228 0.0 0.0 0.00 0.00 0.00 68 1014.8
20260507023448 40 228 0.0 0.0 0.00 0.00 0.00 68 1014.7
20260507023253 40 228 0.0 0.0 0.00 0.00 0.00 68 1014.7
20260507023247 40 228 0.0 0.0 0.00 0.00 0.00 68 1014.8
20260507023049 40 228 0.0 0.0 0.00 0.00 0.00 67 1014.8
20260507023042 40 228 0.0 0.0 0.00 0.00 0.00 67 1014.8
20260507023016 40 228 0.0 0.0 0.00 0.00 0.00 67 1014.8
20260507022643 40 228 0.0 0.0 0.00 0.00 0.00 67 1014.7
20260507022443 40 228 0.0 0.0 0.00 0.00 0.00 67 1014.7
20260507022239 40 228 0.0 0.0 0.00 0.00 0.00 67 1014.7
20260507022145 40 228 0.0 0.0 0.00 0.00 0.00 67 1014.8
20260507022058 40 228 0.0 0.0 0.00 0.00 0.00 65 1014.8
20260507022013 40 228 0.0 0.0 0.00 0.00 0.00 66 1014.8
20260507021638 40 228 0.0 0.0 0.00 0.00 0.00 65 1015.0
20260507021438 40 228 0.0 0.0 0.00 0.00 0.00 65 1014.8
20260507021232 40 228 0.0 0.0 0.00 0.00 0.00 64 1014.8
20260507021046 41 228 0.0 0.0 0.00 0.00 0.00 63 1014.8
20260507021040 40 228 0.0 0.0 0.00 0.00 0.00 64 1014.8
20260507021002 41 228 0.0 0.0 0.00 0.00 0.00 63 1014.8
20260507020637 41 228 0.0 0.0 0.00 0.00 0.00 62 1014.8
20260507020535 41 228 0.0 0.0 0.00 0.00 0.00 62 1015.0
20260507020231 41 228 0.0 0.0 0.00 0.00 0.00 61 1014.7
20260507020035 41 228 0.0 0.0 0.00 0.00 0.00 62 1014.8
20260507015834 41 228 0.0 0.0 0.00 0.00 0.00 62 1014.8
20260507015729 41 228 0.0 0.0 0.00 0.00 0.00 61 1015.0
20260507015634 41 228 0.0 0.0 0.00 0.00 0.00 61 1014.8
20260507015435 41 228 0.0 0.0 0.00 0.00 0.00 61 1014.8
20260507015230 41 228 0.0 0.0 0.00 0.00 0.00 62 1014.8
20260507015033 41 228 0.0 0.0 0.00 0.00 0.00 62 1014.7
20260507014930 41 228 0.0 1.0 0.00 0.00 0.00 61 1014.7
20260507014730 41 228 0.0 1.0 0.00 0.00 0.00 61 1014.7
20260507014631 41 228 0.0 1.0 0.00 0.00 0.00 61 1014.7
20260507014431 41 228 0.0 1.0 0.00 0.00 0.00 61 1014.7
20260507014230 41 228 0.0 1.0 0.00 0.00 0.00 61 1014.7
20260507014030 41 228 0.0 1.0 0.00 0.00 0.00 61 1014.7
20260507013830 42 228 0.0 1.0 0.00 0.00 0.00 60 1014.8
20260507013733 42 228 0.0 0.0 0.00 0.00 0.00 59 1014.7
20260507013633 42 228 0.0 0.0 0.00 0.00 0.00 59 1014.7
20260507013434 42 228 0.0 0.0 0.00 0.00 0.00 58 1014.7
20260507013337 42 228 0.0 0.0 0.00 0.00 0.00 58 1014.7
20260507013234 42 228 0.0 0.0 0.00 0.00 0.00 58 1014.7
20260507013009 42 228 0.0 0.0 0.00 0.00 0.00 58 1014.8
20260507012807 42 228 0.0 0.0 0.00 0.00 0.00 58 1014.7
20260507012703 42 228 0.0 0.0 0.00 0.00 0.00 58 1014.8
20260507012607 42 228 0.0 0.0 0.00 0.00 0.00 58 1014.8
20260507012407 42 228 0.0 0.0 0.00 0.00 0.00 61 1014.8
20260507012201 42 228 0.0 0.0 0.00 0.00 0.00 58 1014.7
20260507012005 43 228 0.0 1.0 0.00 0.00 0.00 58 1014.8
20260507011814 43 228 0.0 1.0 0.00 0.00 0.00 58 1014.8
20260507011716 43 228 0.0 1.0 0.00 0.00 0.00 59 1014.8
20260507011705 43 228 0.0 1.0 0.00 0.00 0.00 59 1015.0
20260507011453 43 228 0.0 1.0 0.00 0.00 0.00 56 1014.8
20260507011206 43 228 0.0 1.0 0.00 0.00 0.00 56 1015.0
20260507011003 43 228 0.0 2.0 0.00 0.00 0.00 56 1014.8
20260507010931 44 228 0.0 2.0 0.00 0.00 0.00 56 1014.8
20260507010559 44 228 0.0 4.0 0.00 0.00 0.00 56 1014.8
20260507010402 44 228 0.0 4.0 0.00 0.00 0.00 55 1014.8
20260507010202 44 228 0.0 4.0 0.00 0.00 0.00 55 1014.8
20260507010157 44 228 0.0 4.0 0.00 0.00 0.00 55 1014.8
20260507005959 44 237 0.0 2.0 0.00 0.00 0.00 55 1014.8
20260507005954 44 227 0.0 4.0 0.00 0.00 0.00 55 1014.8
20260507005930 44 227 0.0 4.0 0.00 0.00 0.00 55 1014.8
20260507005537 44 237 0.0 2.0 0.00 0.00 0.00 55 1014.8
20260507005334 44 237 0.0 3.0 0.00 0.00 0.00 54 1014.8
20260507005239 45 237 0.0 3.0 0.00 0.00 0.00 54 1014.8
20260507005201 45 237 0.0 3.0 0.00 0.00 0.00 54 1014.8
20260507005003 45 237 0.0 6.0 0.00 0.00 0.00 54 1014.8
20260507004953 45 237 0.0 4.0 0.00 0.00 0.00 54 1015.0
20260507004930 45 237 0.0 6.0 0.00 0.00 0.00 54 1014.8
20260507004508 45 237 0.0 6.0 0.00 0.00 0.00 54 1015.0
20260507004307 45 250 0.0 6.0 0.00 0.00 0.00 54 1015.0
20260507004149 45 250 0.0 6.0 0.00 0.00 0.00 54 1015.0
20260507004052 45 250 0.0 6.0 0.00 0.00 0.00 53 1015.0
20260507003850 45 248 0.0 6.0 0.00 0.00 0.00 53 1015.1
20260507003650 45 172 0.0 4.0 0.00 0.00 0.00 53 1014.8
20260507003547 45 224 0.0 3.0 0.00 0.00 0.00 53 1014.8
20260507003249 46 219 0.0 6.0 0.00 0.00 0.00 53 1015.0
20260507003149 46 214 0.0 6.0 0.00 0.00 0.00 54 1014.8
20260507003049 46 214 0.0 6.0 0.00 0.00 0.00 53 1014.7
20260507002850 46 214 0.0 6.0 0.00 0.00 0.00 53 1014.8
20260507002649 46 264 0.0 6.0 0.00 0.00 0.00 53 1014.8
20260507002452 46 264 0.0 7.0 0.00 0.00 0.00 53 1015.0
20260507002250 46 258 0.0 7.0 0.00 0.00 0.00 52 1015.0
20260507002150 46 258 0.0 7.0 0.00 0.00 0.00 52 1015.1
20260507002050 46 204 0.0 7.0 0.00 0.00 0.00 52 1015.1
20260507001852 46 245 0.0 7.0 0.00 0.00 0.00 54 1015.1
20260507001801 46 248 0.0 7.0 0.00 0.00 0.00 53 1015.1
20260507001651 46 248 0.0 7.0 0.00 0.00 0.00 53 1015.1
20260507001452 46 250 0.0 6.0 0.00 0.00 0.00 53 1015.1
20260507001250 46 238 0.0 6.0 0.00 0.00 0.00 54 1015.1
20260507001149 46 254 0.0 6.0 0.00 0.00 0.00 54 1015.1
20260507001050 46 252 0.0 6.0 0.00 0.00 0.00 53 1015.2
20260507000851 46 254 0.0 7.0 0.00 0.00 0.00 52 1015.0
20260507000650 46 258 0.0 7.0 0.00 0.00 0.00 52 1015.0
20260507000450 46 251 0.0 9.0 0.00 0.00 0.00 52 1015.2
20260507000250 46 240 0.0 9.0 0.00 0.00 0.00 53 1015.2
20260507000205 46 235 0.0 9.0 0.00 0.00 0.00 54 1015.2
20260507000153 46 230 0.0 9.0 0.00 0.00 0.00 54 1015.2
20260506235852 46 237 0.0 9.0 0.00 0.00 0.00 54 1015.1
20260506235651 46 275 0.0 9.0 0.00 0.00 0.00 53 1015.1
20260506235450 46 241 0.0 6.0 0.00 0.00 0.00 54 1015.2
20260506235250 46 241 0.0 6.0 0.00 0.00 0.00 55 1015.1
20260506235149 46 237 0.0 11.0 0.00 0.00 0.00 54 1015.1
20260506235050 46 237 0.0 11.0 0.00 0.00 0.00 54 1015.2
20260506234851 46 240 0.0 11.0 0.00 0.00 0.00 54 1015.2
20260506234650 46 217 0.0 11.0 0.00 0.00 0.00 54 1015.2
20260506234553 46 231 0.0 11.0 0.00 0.00 0.00 54 1015.2
20260506234439 46 221 0.0 6.0 0.00 0.00 0.00 53 1015.2
20260506234412 46 217 0.0 11.0 0.00 0.00 0.00 54 1015.2
20260506234137 46 226 0.0 6.0 0.00 0.00 0.00 53 1015.2
20260506233837 46 243 0.0 4.0 0.00 0.00 0.00 54 1015.2
20260506233644 46 134 0.0 4.0 0.00 0.00 0.00 54 1015.3
20260506233451 46 216 0.0 6.0 0.00 0.00 0.00 54 1015.2
20260506233445 46 131 0.0 6.0 0.00 0.00 0.00 54 1015.2
20260506233416 46 216 0.0 6.0 0.00 0.00 0.00 54 1015.2
20260506233035 46 216 0.0 6.0 0.00 0.00 0.00 53 1015.3
20260506232837 46 216 0.0 6.0 0.00 0.00 0.00 53 1015.3
20260506232647 46 233 0.0 6.0 0.00 0.00 0.00 53 1015.3
20260506232637 46 227 0.0 6.0 0.00 0.00 0.00 53 1015.2
20260506232542 46 285 0.0 5.0 0.00 0.00 0.00 52 1015.3
20260506232444 46 250 0.0 6.0 0.00 0.00 0.00 52 1015.3
20260506232411 46 252 0.0 6.0 0.00 0.00 0.00 52 1015.3
20260506232034 47 219 0.0 6.0 0.00 0.00 0.00 52 1015.4
20260506231810 47 219 0.0 6.0 0.00 0.00 0.00 52 1015.3
20260506231649 47 228 0.0 6.0 0.00 0.00 0.00 53 1015.2
20260506231606 47 178 0.0 6.0 0.00 0.00 0.00 53 1015.3
20260506231401 47 102 0.0 7.0 0.00 0.00 0.00 53 1015.3
20260506231159 47 257 0.0 9.0 0.00 0.00 0.00 53 1015.2
20260506231147 47 257 0.0 9.0 0.00 0.00 0.00 53 1015.3
20260506231000 47 283 0.0 9.0 0.00 0.00 0.00 53 1015.2
20260506230855 46 250 0.0 9.0 0.00 0.00 0.00 53 1015.3
20260506230650 46 250 0.0 9.0 0.00 0.00 0.00 53 1015.2
20260506230552 46 233 0.0 9.0 0.00 0.00 0.00 53 1015.3
20260506230350 46 216 0.0 9.0 0.00 0.00 0.00 54 1015.3
20260506230151 46 231 0.0 6.0 0.00 0.00 0.00 54 1015.3
20260506230054 46 231 0.0 6.0 0.00 0.00 0.00 54 1015.3
20260506225734 46 271 0.0 6.0 0.00 0.00 0.00 53 1015.2
20260506225650 47 271 0.0 6.0 0.00 0.00 0.00 53 1015.2
20260506225532 47 272 0.0 6.0 0.00 0.00 0.00 52 1015.3
20260506225333 47 247 0.0 4.0 0.00 0.00 0.00 54 1015.3
20260506225151 47 250 0.0 4.0 0.00 0.00 0.00 54 1015.3
20260506225132 47 250 0.0 5.0 0.00 0.00 0.00 54 1015.3
20260506224913 47 248 0.0 5.0 0.00 0.00 0.00 52 1015.3
20260506224712 47 234 0.0 5.0 0.00 0.00 0.00 52 1015.3
20260506224647 47 240 0.0 5.0 0.00 0.00 0.00 53 1015.3
20260506224518 47 251 0.0 5.0 0.00 0.00 0.00 52 1015.3
20260506224410 47 231 0.0 5.0 0.00 0.00 0.00 52 1015.2
20260506224146 47 262 0.0 5.0 0.00 0.00 0.00 53 1015.2
20260506224107 47 250 0.0 4.0 0.00 0.00 0.00 52 1015.2
20260506223909 47 220 0.0 3.0 0.00 0.00 0.00 53 1015.3
20260506223707 47 220 0.0 3.0 0.00 0.00 0.00 53 1015.3
20260506223649 47 220 0.0 3.0 0.00 0.00 0.00 53 1015.3
20260506223456 47 217 0.0 3.0 0.00 0.00 0.00 53 1015.3
20260506223254 47 245 0.0 3.0 0.00 0.00 0.00 53 1015.3
20260506223150 47 259 0.0 2.0 0.00 0.00 0.00 54 1015.4
20260506223051 47 259 0.0 2.0 0.00 0.00 0.00 53 1015.3
20260506222940 47 228 0.0 5.0 0.00 0.00 0.00 52 1015.2
20260506222930 47 228 0.0 1.0 0.00 0.00 0.00 52 1015.2
20260506222437 47 228 0.0 5.0 0.00 0.00 0.00 52 1015.2
20260506222238 47 228 0.0 5.0 0.00 0.00 0.00 52 1015.3
20260506222136 47 228 0.0 5.0 0.00 0.00 0.00 52 1015.2
20260506222040 47 228 0.0 5.0 0.00 0.00 0.00 52 1015.3
20260506221839 47 228 0.0 5.0 0.00 0.00 0.00 52 1015.3
20260506221637 47 231 0.0 3.0 0.00 0.00 0.00 53 1015.4
20260506221437 47 231 0.0 5.0 0.00 0.00 0.00 54 1015.3
20260506221239 47 231 0.0 5.0 0.00 0.00 0.00 52 1015.4
20260506221136 47 231 0.0 5.0 0.00 0.00 0.00 52 1015.4
20260506221037 47 226 0.0 5.0 0.00 0.00 0.00 51 1015.4
20260506220938 48 128 0.0 5.0 0.00 0.00 0.00 55 1015.4
20260506220637 47 128 0.0 5.0 0.00 0.00 0.00 53 1015.4
20260506220437 47 7 0.0 3.0 0.00 0.00 0.00 54 1015.4
20260506220239 47 240 0.0 3.0 0.00 0.00 0.00 54 1015.4
20260506220136 47 240 0.0 4.0 0.00 0.00 0.00 53 1015.4
20260506220038 46 68 0.0 4.0 0.00 0.00 0.00 54 1015.5
20260506215834 46 68 0.0 5.0 0.00 0.00 0.00 54 1015.4
20260506215638 47 189 0.0 11.0 0.00 0.00 0.00 54 1015.4
20260506215624 46 252 0.0 11.0 0.00 0.00 0.00 54 1015.4
20260506215414 46 212 0.0 11.0 0.00 0.00 0.00 55 1015.5
20260506215312 46 247 0.0 11.0 0.00 0.00 0.00 54 1015.6
20260506215136 46 227 0.0 11.0 0.00 0.00 0.00 54 1015.6
20260506215010 46 240 0.0 11.0 0.00 0.00 0.00 54 1015.5
20260506214808 46 238 0.0 11.0 0.00 0.00 0.00 53 1015.6
20260506214636 46 212 0.0 10.0 0.00 0.00 0.00 53 1015.5
20260506214608 46 231 0.0 10.0 0.00 0.00 0.00 53 1015.6
20260506214408 47 243 0.0 6.0 0.00 0.00 0.00 54 1015.6
20260506214207 46 259 0.0 6.0 0.00 0.00 0.00 55 1015.6
20260506214135 46 240 0.0 6.0 0.00 0.00 0.00 55 1015.6
20260506214008 46 255 0.0 6.0 0.00 0.00 0.00 52 1015.6
20260506213803 47 234 0.0 3.0 0.00 0.00 0.00 54 1015.7
20260506213634 0 0.0 0.0 0.00 0.00 0.00 1015.6
20260506213604 46 221 0.0 5.0 0.00 0.00 0.00 53 1015.6
20260506213404 46 221 0.0 5.0 0.00 0.00 0.00 53 1015.6
20260506213205 46 221 0.0 5.0 0.00 0.00 0.00 53 1015.8
20260506213130 46 221 0.0 5.0 0.00 0.00 0.00 53 1015.8
20260506212933 46 221 0.0 5.0 0.00 0.00 0.00 53 1015.7
20260506212732 46 221 0.0 5.0 0.00 0.00 0.00 53 1015.8
20260506212639 46 268 0.0 5.0 0.00 0.00 0.00 53 1015.7
20260506212629 46 221 0.0 5.0 0.00 0.00 0.00 53 1015.7
20260506212516 46 312 0.0 5.0 0.00 0.00 0.00 54 1015.7
20260506212125 46 203 0.0 7.0 0.00 0.00 0.00 55 1015.8
20260506211923 46 220 0.0 7.0 0.00 0.00 0.00 56 1015.8
20260506211723 46 217 0.0 7.0 0.00 0.00 0.00 56 1015.8
20260506211627 46 217 0.0 7.0 0.00 0.00 0.00 56 1015.7
20260506211522 46 213 0.0 7.0 0.00 0.00 0.00 56 1015.8
20260506211317 46 268 0.0 12.0 0.00 0.00 0.00 55 1015.9
20260506211211 46 254 0.0 12.0 0.00 0.00 0.00 55 1015.8
20260506211125 46 252 0.0 12.0 0.00 0.00 0.00 56 1015.8
20260506210927 46 228 0.0 12.0 0.00 0.00 0.00 56 1015.8
20260506210919 46 244 0.0 12.0 0.00 0.00 0.00 55 1015.8
20260506210848 46 228 0.0 12.0 0.00 0.00 0.00 57 1015.8
20260506210505 46 235 0.0 12.0 0.00 0.00 0.00 56 1015.9
20260506210306 45 233 0.0 10.0 0.00 0.00 0.00 57 1015.9
20260506210124 46 259 0.0 9.0 0.00 0.00 0.00 55 1015.9
20260506210104 46 224 0.0 9.0 0.00 0.00 0.00 56 1015.9
20260506205905 46 258 0.0 9.0 0.00 0.00 0.00 58 1015.9
20260506205704 46 258 0.0 9.0 0.00 0.00 0.00 58 1015.9
20260506205623 46 258 0.0 9.0 0.00 0.00 0.00 58 1015.9
20260506205504 45 264 0.0 9.0 0.00 0.00 0.00 58 1016.1
20260506205309 45 243 0.0 9.0 0.00 0.00 0.00 57 1016.0
20260506205117 45 240 0.0 6.0 0.00 0.00 0.00 56 1016.1
20260506205107 45 240 0.0 7.0 0.00 0.00 0.00 56 1016.1
20260506204838 45 240 0.0 7.0 0.00 0.00 0.00 56 1016.1
20260506204639 45 279 0.0 7.0 0.00 0.00 0.00 55 1016.1
20260506204604 45 127 0.0 7.0 0.00 0.00 0.00 59 1016.2
20260506204437 45 248 0.0 7.0 0.00 0.00 0.00 57 1016.1
20260506204337 45 233 0.0 7.0 0.00 0.00 0.00 56 1016.0
20260506204103 45 214 0.0 6.0 0.00 0.00 0.00 57 1016.1
20260506204041 45 265 0.0 6.0 0.00 0.00 0.00 56 1016.1
20260506203834 46 227 0.0 6.0 0.00 0.00 0.00 59 1016.1
20260506203635 45 223 0.0 6.0 0.00 0.00 0.00 59 1016.1
20260506203603 45 223 0.0 6.0 0.00 0.00 0.00 59 1016.1
20260506203436 45 223 0.0 7.0 0.00 0.00 0.00 59 1016.1
20260506203224 44 237 0.0 10.0 0.00 0.00 0.00 59 1016.0